STARLINK-34792, 65085

Orbit data source: Space-Track

STARLINK-34792, 65085 is a payload satellite owned by SpaceX/Seattle (US) in LEO that was launched on Mon, 04 Aug 2025 UTC via an FALCON 9 launch vehicle from the Air Force Eastern Test Range (AFETR). Payload-class satellites include a variety of spacecraft equipped with specific instruments for various scientific and technological missions. These include communications satellites like Starlink; space stations such as the ISS; scientific satellites like the Hubble; Earth observation satellites from companies like Planet Labs, Umbra, and HawkEye 360; GPS; miniature CubeSats for education and research; and military/defense satellites.

Loading next visibility...
Identifier
65085, 2025-167H
Orbit
LEO
Country
Flag of USUS
Related business
Manufacturer
SpaceX/Seattle
Mission
Operational spacecraft
Bus & Motor
STARLINK V2MO, Unknown motor
Mass
575 kg wet, ~530 kg dry
Launch date (UTC)
2025-08-04 (1 month ago)
Launch vehicle
FALCON 9
Launch site
Air Force Eastern Test Range (AFETR)
Object type
Payload
Rocket body
Debris
Shape & HBR
Unknown
Radar Cross Section
Large (>1 m²)

Expand to show TLE details & history
Last TLE update: 9 hours ago

TLE from 9 hours ago
0 STARLINK-34792
1 65085U 25167H   25243.24403237  .00390592  00000-0  25537-2 0  9998
2 65085  53.1575 194.7080 0001686  86.6891 273.4322 15.74151488  4270
Epoch: 2025-08-31T05:51Z
TLE epoch observation values (Epoch: 2025-08-31T05:51:24.396Z)
Latitude
-0.00001°
Longitude
127.18958°
Altitude
347.896 km
Speed
7.701 km/s
True Right ascension
12h 58m 49s
True Declination
0° 00' 00"
Sunlit
Object was in daylight at epoch
Visualization orbit readout
Latitude
Unknown
Longitude
Unknown
Altitude
Unknown
Speed
Unknown
Apparent Right ascension
Unknown
Apparent Declination
Unknown
Sunlit
N/A
Visualization observer readout
Local Sidereal Time
06:13:02
Azimuth
Unknown
Elevation
Unknown
Doppler factor
Unknown
Orbital elements
Apogee altitude
348.442 km
Perigee altitude
346.174 km
Semi-major axis
6,725.445 km
Eccentricity
0.00017
Inclination
53.1575°
RAAN
194.708°
Arg. of periapsis
86.6891°
True anomaly
273.41291°
Mean anomaly
273.4322°
Eccentric anomaly
273.42256°
Mean motion
3.93515 °/min
Orbital period
91.48 mins
BSTAR
0.0025537
Loading maneuver chart data...
Computing Atmospheric mass density...
Loading historical data...
Loading historical data...
Loading historical data...
Loading historical data...
Loading historical data...
Loading historical data...
Loading historical data...

Documentation

Showing up to 5 results
|